DLH4EF EDDF-EDDH

Flight info

Callsign DLH4EF
Flight time 0h 49m
Altitude 31000
Route MARUN3W/25C MARUN Y150 TOLGI DCT SAS/N0441F300 P605 NOLGO NOLGO3P
Aircraft A320/M-SDE3FGHIRWY/LB1

Departure

Time 2026-05-04 15:59
Airport Frankfurt Main Airport (EDDF)

Arrival

Time 2026-05-04 16:48
Airport Hamburg Helmut Schmidt Airport (EDDH)
Time Latitude Longitude Altitude Speed Heading
2026-05-04 15:15 50.04915 8.58158 360 ft 0 kts 340°
2026-05-04 15:42 50.04914 8.58159 359 ft 2 kts 340°
2026-05-04 15:43 50.04891 8.58172 361 ft 4 kts 340°
2026-05-04 15:43 50.04869 8.58184 362 ft 3 kts 341°
2026-05-04 15:43 50.04845 8.58189 361 ft 4 kts 27°
2026-05-04 15:43 50.04829 8.58161 362 ft 4 kts 69°
2026-05-04 15:44 50.04823 8.58137 359 ft 0 kts 70°
2026-05-04 15:50 50.04824 8.58143 359 ft 2 kts 70°
2026-05-04 15:50 50.04827 8.58156 361 ft 3 kts 70°
2026-05-04 15:50 50.04837 8.58197 362 ft 4 kts 69°
2026-05-04 15:50 50.04845 8.58227 362 ft 2 kts 69°
2026-05-04 15:51 50.04849 8.58246 363 ft 2 kts 69°
2026-05-04 15:51 50.04862 8.58301 363 ft 8 kts 69°
2026-05-04 15:51 50.04885 8.58394 361 ft 12 kts 69°
2026-05-04 15:51 50.04916 8.58524 360 ft 12 kts 70°
2026-05-04 15:52 50.04923 8.58645 360 ft 10 kts 118°
2026-05-04 15:52 50.04877 8.58689 362 ft 6 kts 158°
2026-05-04 15:52 50.04855 8.58703 366 ft 1 kts 159°
2026-05-04 15:52 50.04837 8.58713 364 ft 4 kts 159°
2026-05-04 15:53 50.04822 8.58722 366 ft 1 kts 159°
2026-05-04 15:53 50.04801 8.58734 369 ft 6 kts 159°
2026-05-04 15:53 50.04794 8.58738 365 ft 0 kts 160°
2026-05-04 15:56 50.04775 8.58749 372 ft 8 kts 160°
2026-05-04 15:56 50.04727 8.58769 368 ft 10 kts 175°
2026-05-04 15:57 50.04654 8.58759 370 ft 10 kts 188°
2026-05-04 15:57 50.04587 8.58717 371 ft 10 kts 217°
2026-05-04 15:57 50.04524 8.58638 371 ft 16 kts 220°
2026-05-04 15:57 50.04462 8.58484 370 ft 18 kts 249°
2026-05-04 15:58 50.04418 8.58293 369 ft 20 kts 252°
2026-05-04 15:58 50.04349 8.58000 369 ft 46 kts 250°
2026-05-04 15:58 50.04152 8.57184 371 ft 111 kts 250°
2026-05-04 15:58 50.03821 8.55794 359 ft 160 kts 250°
2026-05-04 15:59 50.03404 8.54121 789 ft 169 kts 251°
2026-05-04 15:59 50.02970 8.52385 1392 ft 173 kts 250°
2026-05-04 15:59 50.02509 8.50634 1947 ft 183 kts 245°
2026-05-04 15:59 50.01681 8.48977 2270 ft 206 kts 223°
2026-05-04 16:00 50.00380 8.47939 2819 ft 218 kts 194°
2026-05-04 16:00 49.98859 8.47664 3556 ft 219 kts 187°
2026-05-04 16:00 49.97340 8.47399 4035 ft 217 kts 189°
2026-05-04 16:00 49.95862 8.47009 4663 ft 214 kts 198°
2026-05-04 16:01 49.94372 8.46302 5130 ft 234 kts 197°
2026-05-04 16:01 49.92795 8.45529 5864 ft 240 kts 202°
2026-05-04 16:01 49.91443 8.44025 6715 ft 243 kts 229°
2026-05-04 16:01 49.90688 8.41677 7567 ft 249 kts 256°
2026-05-04 16:02 49.90743 8.39008 8383 ft 259 kts 283°
2026-05-04 16:02 49.91703 8.36570 9207 ft 271 kts 314°
2026-05-04 16:02 49.95222 8.33851 10239 ft 306 kts 334°
2026-05-04 16:03 49.97265 8.32530 10453 ft 330 kts 334°
2026-05-04 16:03 49.99461 8.31115 10658 ft 352 kts 334°
2026-05-04 16:03 50.01784 8.29746 11194 ft 363 kts 342°
2026-05-04 16:03 50.04299 8.29065 11886 ft 370 kts 355°
2026-05-04 16:04 50.06889 8.29202 12611 ft 375 kts
2026-05-04 16:04 50.11941 8.31480 14022 ft 382 kts 18°
2026-05-04 16:04 50.14464 8.32802 14654 ft 385 kts 18°
2026-05-04 16:05 50.17019 8.34142 15267 ft 389 kts 18°
2026-05-04 16:05 50.19599 8.35500 15884 ft 394 kts 18°
2026-05-04 16:05 50.24854 8.38269 17107 ft 402 kts 18°
2026-05-04 16:06 50.27526 8.39675 17701 ft 407 kts 18°
2026-05-04 16:06 50.34755 8.43550 19116 ft 417 kts 18°
2026-05-04 16:07 50.38434 8.45570 19813 ft 421 kts 19°
2026-05-04 16:07 50.46833 8.50196 21356 ft 431 kts 18°
2026-05-04 16:08 50.49681 8.51707 21847 ft 433 kts 17°
2026-05-04 16:08 50.58393 8.55826 23258 ft 442 kts 14°
2026-05-04 16:09 50.64329 8.58590 24054 ft 447 kts 15°
2026-05-04 16:09 50.70321 8.61463 24757 ft 452 kts 15°
2026-05-04 16:10 50.76373 8.64421 25452 ft 457 kts 17°
2026-05-04 16:11 50.84446 8.72431 26427 ft 467 kts 46°
2026-05-04 16:11 50.86537 8.76376 26742 ft 469 kts 53°
2026-05-04 16:12 50.92501 8.88819 27658 ft 476 kts 53°
2026-05-04 16:12 50.98532 9.01470 28530 ft 482 kts 53°
2026-05-04 16:13 51.02595 9.10024 29028 ft 488 kts 54°
2026-05-04 16:13 51.06694 9.18666 29501 ft 492 kts 51°
2026-05-04 16:14 51.11775 9.25964 29966 ft 495 kts 32°
2026-05-04 16:14 51.17953 9.30428 30755 ft 489 kts 13°
2026-05-04 16:15 51.27821 9.33963 30934 ft 479 kts
2026-05-04 16:16 51.34329 9.36212 30957 ft 478 kts
2026-05-04 16:17 51.49534 9.41498 30965 ft 478 kts
2026-05-04 16:18 51.62504 9.46054 30964 ft 478 kts
2026-05-04 16:19 51.78772 9.51820 30952 ft 480 kts
2026-05-04 16:20 51.88156 9.57575 30951 ft 486 kts 25°
2026-05-04 16:20 51.94171 9.62581 30957 ft 486 kts 25°
2026-05-04 16:22 52.09213 9.75111 30963 ft 488 kts 25°
2026-05-04 16:23 52.27551 9.89513 30965 ft 484 kts 11°
2026-05-04 16:24 52.40565 9.95193 29556 ft 496 kts 11°
2026-05-04 16:25 52.47227 9.98165 28184 ft 484 kts 11°
2026-05-04 16:26 52.59972 10.03844 25580 ft 465 kts 11°
2026-05-04 16:26 52.69213 10.07973 23779 ft 452 kts 11°
2026-05-04 16:27 52.75224 10.10671 22608 ft 441 kts 11°
2026-05-04 16:28 52.84065 10.11984 21158 ft 416 kts 356°
2026-05-04 16:28 52.92621 10.12275 19759 ft 410 kts 357°
2026-05-04 16:29 53.03987 10.12654 17762 ft 403 kts 358°
2026-05-04 16:30 53.12072 10.12918 16292 ft 391 kts 358°
2026-05-04 16:31 53.17467 10.13097 15306 ft 385 kts 358°
2026-05-04 16:31 53.25455 10.13361 13811 ft 382 kts 358°
2026-05-04 16:32 53.33319 10.13616 12260 ft 370 kts 358°
2026-05-04 16:33 53.38408 10.13803 11240 ft 362 kts 358°
2026-05-04 16:33 53.43348 10.13380 10457 ft 346 kts 353°
2026-05-04 16:34 53.48011 10.12785 9772 ft 332 kts 352°
2026-05-04 16:34 53.50266 10.12500 9292 ft 317 kts 353°
2026-05-04 16:35 53.56548 10.11853 7986 ft 289 kts
2026-05-04 16:35 53.61091 10.16945 7613 ft 263 kts 48°
2026-05-04 16:36 53.62266 10.19304 7489 ft 263 kts 48°
2026-05-04 16:36 53.64608 10.24015 7245 ft 261 kts 48°
2026-05-04 16:37 53.66927 10.28700 7008 ft 260 kts 48°
2026-05-04 16:37 53.68085 10.31044 6882 ft 260 kts 48°
2026-05-04 16:37 53.70389 10.35716 6644 ft 259 kts 48°
2026-05-04 16:38 53.72701 10.40397 5981 ft 259 kts 48°
2026-05-04 16:39 53.76140 10.47353 4866 ft 256 kts 45°
2026-05-04 16:39 53.79149 10.49720 4470 ft 235 kts 356°
2026-05-04 16:40 53.81995 10.47763 4222 ft 223 kts 311°
2026-05-04 16:40 53.83141 10.43108 3968 ft 217 kts 269°
2026-05-04 16:41 53.82212 10.38290 4010 ft 219 kts 245°
2026-05-04 16:41 53.79477 10.32241 3720 ft 205 kts 232°
2026-05-04 16:42 53.76859 10.27009 3374 ft 182 kts 232°
2026-05-04 16:43 53.75339 10.23904 3118 ft 161 kts 233°
2026-05-04 16:43 53.74009 10.21170 3018 ft 145 kts 234°
2026-05-04 16:43 53.73374 10.19867 3018 ft 143 kts 234°
2026-05-04 16:44 53.70924 10.14864 2349 ft 136 kts 235°
2026-05-04 16:45 53.69712 10.12392 1958 ft 138 kts 234°
2026-05-04 16:46 53.67839 10.08579 1389 ft 142 kts 235°
2026-05-04 16:46 53.66577 10.06013 1002 ft 142 kts 234°
2026-05-04 16:47 53.65319 10.03437 618 ft 143 kts 233°
2026-05-04 16:47 53.64043 10.00887 229 ft 142 kts 233°
2026-05-04 16:48 53.62508 9.97749 45 ft 59 kts 229°
2026-05-04 16:48 53.62316 9.97391 49 ft 27 kts 211°
2026-05-04 16:49 53.62195 9.97611 50 ft 9 kts 70°
2026-05-04 16:49 53.62265 9.97757 50 ft 7 kts 49°
2026-05-04 16:50 53.62334 9.97897 50 ft 14 kts 50°
2026-05-04 16:50 53.62490 9.98165 50 ft 18 kts 40°
2026-05-04 16:51 53.62671 9.98510 50 ft 21 kts 52°
2026-05-04 16:51 53.62768 9.98710 50 ft 18 kts 51°
2026-05-04 16:51 53.62935 9.99048 50 ft 21 kts 50°
2026-05-04 16:52 53.63047 9.99275 50 ft 9 kts 52°
2026-05-04 16:52 53.63084 9.99358 50 ft 8 kts 52°
2026-05-04 16:53 53.63145 9.99511 50 ft 11 kts 54°
2026-05-04 16:53 53.63266 9.99743 50 ft 6 kts 45°
2026-05-04 16:54 53.63313 9.99831 49 ft 11 kts 49°
2026-05-04 16:55 53.63407 10.00169 48 ft 7 kts 139°
2026-05-04 16:55 53.63327 10.00201 51 ft 5 kts 174°
2026-05-04 16:56 53.63268 10.00209 47 ft 4 kts 175°
2026-05-04 16:56 53.63245 10.00301 51 ft 0 kts 86°
2026-05-04 16:57 53.63245 10.00318 51 ft 2 kts 86°
2026-05-04 16:57 53.63246 10.00339 51 ft 0 kts 87°
2026-05-04 16:58 53.63247 10.00354 51 ft 0 kts 87°
2026-05-04 16:58 53.63247 10.00362 51 ft 0 kts 87°